Tule Lake Weather Center

Moon Phase Calendar



Tule Lake Water Level
Online Cameras

 


      

Current Conditions in Tulelake
9/29/2022 3:57:13 AM

43°F
Feels Like 41
Clouds
Humidity
89%
Pressure
30.15"
Wind
3.5 mph (WNW)
Dew Point
40°F
UV Index
0/10 (Low)
Visibility
6 mi

Hourly Forecast

Date & Time Thu, Sep 29
3:00 AM
Thu, Sep 29
4:00 AM
Thu, Sep 29
5:00 AM
Thu, Sep 29
6:00 AM
Thu, Sep 29
7:00 AM
Thu, Sep 29
8:00 AM
Thu, Sep 29
9:00 AM
Thu, Sep 29
10:00 AM
Thu, Sep 29
11:00 AM
Thu, Sep 29
12:00 PM
Thu, Sep 29
1:00 PM
Thu, Sep 29
2:00 PM
Thu, Sep 29
3:00 PM
Thu, Sep 29
4:00 PM
Thu, Sep 29
5:00 PM
Thu, Sep 29
6:00 PM
Thu, Sep 29
7:00 PM
Thu, Sep 29
8:00 PM
Thu, Sep 29
9:00 PM
Thu, Sep 29
10:00 PM
Thu, Sep 29
11:00 PM
Fri, Sep 30
12:00 AM
Fri, Sep 30
1:00 AM
Fri, Sep 30
2:00 AM
Fri, Sep 30
3:00 AM
Fri, Sep 30
4:00 AM
Fri, Sep 30
5:00 AM
Fri, Sep 30
6:00 AM
Fri, Sep 30
7:00 AM
Fri, Sep 30
8:00 AM
Fri, Sep 30
9:00 AM
Fri, Sep 30
10:00 AM
Fri, Sep 30
11:00 AM
Fri, Sep 30
12:00 PM
Fri, Sep 30
1:00 PM
Fri, Sep 30
2:00 PM
Fri, Sep 30
3:00 PM
Fri, Sep 30
4:00 PM
Fri, Sep 30
5:00 PM
Fri, Sep 30
6:00 PM
Fri, Sep 30
7:00 PM
Fri, Sep 30
8:00 PM
Fri, Sep 30
9:00 PM
Fri, Sep 30
10:00 PM
Fri, Sep 30
11:00 PM
Sat, Oct 1
12:00 AM
Sat, Oct 1
1:00 AM
Sat, Oct 1
2:00 AM
Condition
Clouds

Clouds

Clouds

Clouds

Clouds

Clouds

Clear

Clear

Clear

Clear

Clear

Clear

Clear

Clear

Clear

Clear

Clear

Clear

Clear

Clear

Clear

Clear

Clear

Clear

Clear

Clear

Clear

Clear

Clear

Clear

Clear

Clear

Clear

Clear

Clear

Clear

Clear

Clear

Clear

Clear

Clear

Clear

Clear

Clear

Clear

Clear

Clear

Clear
Temperature 44°F43°F44°F44°F43°F46°F50°F54°F58°F61°F64°F67°F69°F70°F69°F66°F59°F55°F54°F52°F50°F49°F48°F47°F46°F45°F44°F44°F43°F47°F51°F55°F59°F63°F67°F69°F72°F73°F73°F69°F61°F59°F58°F56°F54°F52°F52°F51°F
Feels Like 41°F41°F42°F41°F42°F46°F48°F52°F56°F59°F62°F65°F67°F68°F67°F64°F56°F53°F51°F50°F48°F48°F48°F47°F46°F45°F44°F42°F43°F47°F49°F53°F57°F61°F64°F67°F69°F71°F71°F67°F58°F56°F55°F53°F51°F50°F49°F48°F
Cloudiness 51%50%49%34%24%13%3%3%2%2%4%3%3%3%4%3%1%1%1%1%0%0%0%0%0%0%1%5%5%3%2%2%2%0%2%2%3%3%4%5%3%3%3%4%3%0%0%1%
Visibility 6 mi6 mi6 mi6 mi6 mi6 mi6 mi6 mi6 mi6 mi6 mi6 mi6 mi6 mi6 mi6 mi6 mi6 mi6 mi6 mi6 mi6 mi6 mi6 mi6 mi6 mi6 mi6 mi6 mi6 mi6 mi6 mi6 mi6 mi6 mi6 mi6 mi6 mi6 mi6 mi6 mi6 mi6 mi6 mi6 mi6 mi6 mi6 mi
Precipitation 0%0%0%0%0%0%0%0%0%0%0%0%0%0%0%0%0%0%0%0%0%0%0%0%0%0%0%0%0%0%0%0%0%0%0%0%0%0%0%0%0%0%0%0%0%0%0%0%
Humidity 88%89%89%89%90%83%71%59%48%41%36%32%28%26%27%31%42%49%55%59%64%67%70%73%74%77%78%79%81%71%60%52%44%36%30%25%21%20%19%25%30%32%35%39%47%51%53%57%
Dew Point 41°F40°F40°F41°F40°F41°F40°F40°F38°F37°F37°F35°F34°F33°F33°F34°F35°F36°F37°F37°F38°F38°F38°F37°F37°F37°F37°F37°F36°F37°F37°F37°F37°F35°F33°F31°F29°F28°F28°F31°F28°F28°F29°F30°F33°F34°F34°F35°F
Pressure 30.15"30.15"30.15"30.15"30.18"30.21"30.18"30.18"30.15"30.12"30.09"30.06"30.03"30"30"30"30.03"30.06"30.09"30.09"30.12"30.12"30.12"30.12"30.12"30.12"30.12"30.12"30.12"30.12"30.12"30.09"30.06"30.03"30"29.94"29.91"29.88"29.85"29.88"29.88"29.91"29.94"29.94"29.97"29.97"29.97"29.97"
Wind Speed 4.4 mph3.5 mph3.6 mph4 mph3 mph2.4 mph3.7 mph5.4 mph6.5 mph6.9 mph8.5 mph8.5 mph9 mph10.2 mph11.9 mph10.6 mph9 mph6.6 mph5.7 mph5.4 mph4.8 mph3.6 mph2.7 mph2.1 mph2.3 mph2.2 mph2 mph3.1 mph2.2 mph1.9 mph2.3 mph3.8 mph4.3 mph4.6 mph5.1 mph4.8 mph4.6 mph3.5 mph2.2 mph2.5 mph2.3 mph3.4 mph4.2 mph3.5 mph2.6 mph1.8 mph1.5 mph2.1 mph
Wind
Direction
304°
NW
300°
WNW
313°
NW
322°
NW
316°
NW
300°
WNW
321°
NW
327°
NNW
320°
NW
314°
NW
314°
NW
316°
NW
318°
NW
312°
NW
311°
NW
306°
NW
287°
WNW
284°
WNW
295°
WNW
305°
NW
305°
NW
307°
NW
314°
NW
321°
NW
351°
N
353°
N
350°
N

N
358°
N
10°
N
33°
NNE
38°
NE
52°
NE
55°
NE
58°
ENE
53°
NE
44°
NE
37°
NE
21°
NNE
331°
NNW
348°
NNW
38°
NE
73°
ENE
62°
ENE
71°
ENE
64°
ENE
40°
NE
35°
NE

Daily Forecast

Date High Low Precip. Humidity
Today
Sep 29

Clear
70 °F
43 °F
0%
41%
Friday
Sep 30

Clear
73 °F
43 °F
0%
36%
Saturday
Oct 1

Clear
75 °F
48 °F
0%
37%
Sunday
Oct 2

Clear
79 °F
50 °F
0%
29%
Monday
Oct 3

Clear
81 °F
52 °F
0%
24%
Tuesday
Oct 4

Clear
81 °F
53 °F
0%
23%
Wednesday
Oct 5

Clear
82 °F
52 °F
0%
20%
Thursday
Oct 6

Clear
82 °F
53 °F
0%
19%
Friday
Oct 7

Clouds
81 °F
54 °F
0%
22%
Saturday
Oct 8

Clear
78 °F
53 °F
2%
31%
Sunday
Oct 9

Rain
74 °F
52 °F
81%
39%
Monday
Oct 10

Clouds
69 °F
48 °F
14%
52%
Tuesday
Oct 11

Clear
72 °F
46 °F
0%
43%
Wednesday
Oct 12

Clouds
70 °F
47 °F
11%
38%
Thursday
Oct 13

Clouds
70 °F
47 °F
9%
45%
Friday
Oct 14

Clear
72 °F
46 °F
0%
40%

Temperature 8-14 Day Outlook



Precipitation 8-14 Day Outlook




Quick Links
Tule Lake News
Tule Lake Photos
Tule Lake Videos




About Us
Contact Us
Site Map
Search Site
Advertise With Us
   
Tule.LakesOnline.com
THE TULE LAKE WEBSITE

Copyright 2022, Lakes Online
Privacy    |    Legal